Find Starlink 34548

NORAD ID: 64716 Int'l Des: 2025-142 Owner: SPXS Country: US Constellation: starlink operational
LEOCIRCULAR

当前视图

正在加载3D地球...

About Starlink 34548

Starlink 34548 (NORAD 64716) is a starlink constellation satellite (v2 mini) launched Jun 28, 2025 by SPXS of US. It operates in LEO, CIRCULAR orbit with a mass of 575.00 kg.

即将过境

Passes for default location (London). Set your location on the main map for personalized predictions.

高度历史

Loading altitude history...

两行轨道根数

1 64716U 25142W 26261.77203058 .00019194 00000-0 67028-3 0 9997
2 64716 70.0040 185.5948 0002010 276.2842 83.8104 15.29590443 68438
Epoch: Sep 18, 2026 • Age: 46 hours

当前状态

高度 479.2 km
远地点 / 近地点 N/A
速度 7.63 km/s
星下点 1.39°N, 108.09°E
发射日期 Jun 28, 2025
运行时间 1.2 years
类型 internet

技术详情

分类 Payload
质量 575.00 kg
干质量 530.00 kg
长度 0.30 m
跨度 29.00 m
形状 ? Box + pan
制造商 SPXS
平台类型 Starlink V2MO
阶段状态 In Orbit
所有者/国家 SPXS/US

Most Searched